User: anonymous   Login
Location: Zuidbroek
(53.1593°N, 6.8668°E)
Time: 22:09:06
(UTC+02:00)
Language:

ISS - Orbit

View from above orbital plane
View from above orbital plane
View from above satellite
View from above satellite

Ground track
Ground track

The orbit data is extracted from the following two-line orbital elements,

1 25544U 98067A   24263.54139805  .00021054  00000-0  38444-3 0  9990
2 25544  51.6373 208.0208 0007398   9.3380 350.7745 15.49337467473180
Epoch (UTC): 19 September 2024 12:59:36
Eccentricity: 0.0007398
inclination: 51.6373°
perigee height: 413 km
apogee height: 423 km
right ascension of ascending node: 208.0208°
argument of perigee: 9.3380°
revolutions per day: 15.49337467
mean anomaly at epoch: 350.7745°
orbit number at epoch: 47318

The dashed part of the orbit path shows where the satellite is in the earth's shadow,  

DLR